Orbital Elements at Epoch 2459000.5 (2020-May-31.0) TDB
Reference: JPL 16 (heliocentric ecliptic J2000)
Element | Value | Uncertainty (1-sigma) | Units |
e | .1794121776519842 | 5.0012e-08 | |
a | 2.332062421661192 | 9.9786e-09 | au |
q | 1.913662024170598 | 1.19e-07 | au |
i | 7.108227356191283 | 4.9933e-06 | deg |
node | 65.14184797589223 | 5.5726e-05 | deg |
peri | 341.0606049699503 | 5.9141e-05 | deg |
M | 14.80194240868662 | 2.1371e-05 | deg |
tp | 2458947.015875319244 (2020-Apr-07.51587532) | 7.7058e-05 | TDB |
period | 1300.794473688298 3.56 | 8.3489e-06 2.286e-08 | d yr |
n | .2767539432876349 | 1.7763e-09 | deg/d |
Q | 2.750462819151787 | 1.1769e-08 | au |
|
| | Orbit Determination Parameters
Additional Information
|